Regional Weather Roundup
Issued by NWS

Home | Current Version | Previous Version | Text Only | Print | Product List | Glossary Off
Versions: 1 2 3 4 5 6 7 8 9 10 11 12 13 14 15 16 17 18 19 20 21 22 23 24 25 26 27 28 29 30 31 32 33 34 35 36 37 38 39 40 41 42 43 44 45 46 47 48 49 50

000
ASUS43 KMKX 072200
RWRWI

WISCONSIN REGIONAL WEATHER ROUNDUP
NATIONAL WEATHER SERVICE MILWAUKEE/SULLIVAN WI
500 PM CDT TUE JUL 07 2015

NOTE: "FAIR" INDICATES FEW OR NO CLOUDS BELOW 12,000 FEET WITH NO
SIGNIFICANT WEATHER AND/OR OBSTRUCTIONS TO VISIBILITY.

WIZ001-002-006>008-014>016-023>028-072300-
NORTHWEST WISCONSIN

CITY           SKY/WX    TMP DP  RH WIND       PRES   REMARKS
SUPERIOR ARPT  SUNNY     72  47  40 SW5       30.10S
ASHLAND        SUNNY     70  45  40 CALM      30.12S
HAYWARD        SUNNY     69  43  38 N5        30.13S
SIREN          SUNNY     69  42  37 N7        30.13S
CUMBERLAND     SUNNY     68  43  40 N7        30.13S
RICE LAKE      MOSUNNY   69  44  40 CALM      30.14S
CHETEK         MOSUNNY   69  48  47 MISG      30.12S
LADYSMITH      SUNNY     70  45  41 N8        30.13S
EAU CLAIRE     NOT AVBL
MENOMONIE      MOSUNNY   70  47  44 CALM      30.11F
NEW RICHMOND   MOSUNNY   69  47  45 NW5       30.14S
OSCEOLA        PTSUNNY   69  47  45 W3        30.16S
$$

WIZ003>005-009-010-017-018-072300-
NORTH CENTRAL WISCONSIN

CITY           SKY/WX    TMP DP  RH WIND       PRES   REMARKS
MANITOWISH WTR SUNNY     65  44  48 NW5       30.12S
ARBOR VITAE    MOSUNNY   63  44  49 N6        30.12S
WOODRUFF       MOSUNNY   63  44  49 N6        30.12S
RHINELANDER    MOSUNNY   68  45  43 VRB5      30.11S
EAGLE RIVER    MOSUNNY   64  43  45 N7        30.11R
LAND O LAKES   SUNNY     65  43  44 N6        30.13R
PHILLIPS       SUNNY     66  44  45 N5        30.11S
TOMAHAWK       MOSUNNY   66  45  46 NW6       30.11S
MEDFORD        MOSUNNY   67  47  47 N7        30.11S
MERRILL        MOSUNNY   67  47  48 NE9       30.10S
$$

WIZ029-030-035-036-043>047-072300-
CENTRAL WISCONSIN

CITY           SKY/WX    TMP DP  RH WIND       PRES   REMARKS
WAUSAU         MOSUNNY   71  46  40 N9        30.08S
MOSINEE        MOSUNNY   70  48  46 N10       30.10S
MARSHFIELD     MOSUNNY   71  46  40 NE12      30.09S
STEVENS POINT  PTSUNNY   66  46  49 N8        30.09S
WAUPACA        PTSUNNY   72  47  40 N8        30.08S
WAUTOMA        NOT AVBL
WISC RAPIDS    PTSUNNY   72  46  39 NE12      30.10S
CAMP DOUGLAS   NOT AVBL
$$

WIZ011>013-019>022-031-037>040-048>050-072300-
NORTHEAST WISCONSIN

CITY           SKY/WX    TMP DP  RH WIND       PRES   REMARKS
ANTIGO         PTSUNNY   66  48  52 N8        30.10S
SHAWANO        PTSUNNY   72  48  42 N12       30.08S
OCONTO         PTSUNNY   68  49  51 N7        30.06S
STURGEON BAY   SUNNY     64  48  55 N10       30.09S
GREEN BAY      MOSUNNY   70  48  45 N14G20    30.06F
MANITOWOC      NOT AVBL
APPLETON       PTSUNNY   70  46  43 N12       30.07S
CLINTONVILLE   PTSUNNY   70  45  40 N9        30.07S
OSHKOSH        PTSUNNY   69  48  47 NE13      30.06S
$$

WIZ032>034-041-042-053>061-072300-
SOUTHWEST WISCONSIN

CITY           SKY/WX    TMP DP  RH WIND       PRES   REMARKS
LA CROSSE      MOSUNNY   71  48  43 N10       30.09F
SPARTA         PTSUNNY   70  46  42 N9        30.10S
VIROQUA        MOSUNNY   67  49  52 NE9       30.10F
BOSCOBEL       CLOUDY    71  49  45 NE10      30.09S
PRAIRIE DU CHI MOSUNNY   68  46  44 N8        30.09S
PLATTEVILLE    PTSUNNY   69  51  52 N7        30.09R
$$

WIZ056-057-062-063-064-067-068-072300-
SOUTH CENTRAL WISCONSIN

CITY           SKY/WX    TMP DP  RH WIND       PRES   REMARKS
REEDSBURG      SUNNY     67  48  50 N10G16    30.09R
BARABOO/DELLS  PTSUNNY   68  46  44 N10       30.09R
LONE ROCK      NOT AVBL
MINERAL POINT  PTSUNNY   70  46  43 N3        30.09S
MADISON        PTSUNNY   70  50  49 N9        30.07S
MIDDLETON      CLOUDY    69  48  47 N7        30.08S
WATERTOWN      CLOUDY    66  49  55 N8        30.06S
MONROE         CLOUDY    66  54  63 N10       30.07S
JANESVILLE     MOSUNNY   72  52  49 N6        30.06R
$$

WIZ051-052-058>065-066-070>072-072300-
SOUTHEAST WISCONSIN

CITY           SKY/WX    TMP DP  RH WIND       PRES   REMARKS
MILWAUKEE      MOSUNNY   62  49  62 NE13G22   30.08R
WAUKESHA       PTSUNNY   64  48  55 NW8       30.07S
MILWAUKEE/TIMM MOSUNNY   63  46  55 NE9       30.08R
RACINE         SUNNY     63  49  60 NE14      30.09R
BURLINGTON     PTSUNNY   67  49  52 NE7       30.06R
KENOSHA        SUNNY     64  51  62 NE13      30.08R
FOND DU LAC    SUNNY     69  49  48 NE9       30.07S
SHEBOYGAN      CLOUDY    62  50  64 E10       30.07R
WEST BEND      PTSUNNY   68  46  45 N7        30.06S
JUNEAU         MOSUNNY   66  48  51 N13       30.08S
$$

LSZ147-162-072300-
LAKE SUPERIOR

STATION/POSITION TIME  TEMP    WIND        PRES    WAVE
                       AIR SEA DIR/SP/G            HT/PER
                 (UTC) (F)     (DEG/KT/KT) (MB)    (FT/S)
W MID LAKE BUOY  2050   47 39  210/ 10/ 12 1019.5R   0
DEVILS ISLAND    2100   64     210/  4/  5 1019.6S
PORT WING        2100   67     290/  4/  7 1019.6
SAXON HARBOR     2100   66        CALM     1020.0S
$$

LMZ867-665-643>646-072300-
LAKE MICHIGAN

STATION/POSITION TIME  TEMP    WIND        PRES    WAVE
                       AIR SEA DIR/SP/G            HT/PER
                 (UTC) (F)     (DEG/KT/KT) (MB)    (FT/S)
CHAMBERS ISLAND  2100   64      20/ 11/ 12 1017.9R
S GREEN BAY BUOY 2100   66 68  360/ 12/ 14 1019.2R
N MID LAKE BUOY  2050   56 53  330/  8/ 10 1017.3R   2/ 3
NORTHPORT PIER   2100   62     350/ 14/ 16 1017.6R
SISTER BAY       2114   67     360/ 15/ 19   N/A
ALGOMA LAKESHORE 2011           10/ 12/ 17   N/A
KEWAUNEE LAKESHO 2100   60      80/  3/  6 1017.5R
SHEBOYGAN LAKESH 2100   57      40/  5/  5 1018.6R
PORT WASHINGTON  2140   62      60/  6/  8 1019.0R
ATWATER BUOY     2100   58 59   50/ 14/ 17 1019.2R
MILWAUKEE LAKESH 2100   58      40/ 12/ 15   N/A
KENOSHA   LAKESH 2100   58      30/ 14/ 16 1017.9R
$$

TC  - TEMPERATURE IN CELSIUS
VSB - VISIBILITY IN STATUTE MILES
WCI - WIND CHILL INDEX
HX  - HEAT INDEX




USA.gov is the U.S. government's official web portal to all federal, state and local government web resources and services.